Regional Weather Roundup
Issued by NWS

Home | Current Version | Previous Version | Text Only | Print | Product List | Glossary Off
Versions: 1 2 3 4 5 6 7 8 9 10 11 12 13 14 15 16 17 18 19 20 21 22 23 24 25 26 27 28 29 30 31 32 33 34 35 36 37 38 39 40 41 42 43 44 45 46 47 48 49 50

000
ASUS45 KPSR 052210
RWRAZ

ARIZONA REGIONAL HOURLY WEATHER ROUNDUP
NATIONAL WEATHER SERVICE PHOENIX AZ
300 PM MST THU MAR 05 2015

NOTE: FAIR INDICATES FEW OR NO CLOUDS BELOW 12,000 FEET WITH NO
SIGNIFICANT WEATHER AND/OR OBSTRUCTIONS TO VISIBILITY.

AZZ001>003-036-052300-
NORTHWEST ARIZONA

CITY           SKY/WX    TMP DP  RH WIND       PRES   REMARKS
BULLHEAD CITY  SUNNY     68  23  18 N21       30.26F
KINGMAN        SUNNY     61  26  26 N13       30.30S
$$

AZZ004>008-015-016-018-052300-
NORTH CENTRAL ARIZONA

CITY           SKY/WX    TMP DP  RH WIND       PRES   REMARKS
GRAND CANYON   SUNNY     48  -5  11 W7        30.35F
PRESCOTT       SUNNY     58   6  12 VRB3      30.29F
FLAGSTAFF      SUNNY     44  10  25 E9        30.34F
PAYSON         SUNNY     57  18  21 VRB5      30.29F
PAGE           SUNNY     50  22  33 VRB5      30.35F
$$

AZZ009>014-017-052300-
NORTHEAST ARIZONA

CITY           SKY/WX    TMP DP  RH WIND       PRES   REMARKS
WINSLOW        SUNNY     52   9  17 VRB3      30.35F
SAINT JOHNS    SUNNY     54   0  11 N8        30.30F
WINDOW ROCK    SUNNY     53   8  16 E7        30.31F
SHOW LOW       SUNNY     48   5  17 N10       30.34S
$$

AZZ023-052300-
GREATER PHOENIX AREA

CITY           SKY/WX    TMP DP  RH WIND       PRES   REMARKS
PHOENIX        SUNNY     72  13  10 E8        30.18F
BUCKEYE        SUNNY     68  21  17 SE5       30.20F
GLENDALE       SUNNY     73  12   9 NE3       30.20F
LUKE AFB       SUNNY     72  15  11 CALM      30.18F
DEER VALLEY    SUNNY     71   6   8 VRB6      30.19F
SCOTTSDALE     SUNNY     72   9   8 CALM      30.20F
MESA-FALCON    SUNNY     70  14  11 CALM      30.19F
MESA-GATEWAY   SUNNY     70  19  14 N5        30.21F
CHANDLER       SUNNY     72  19  14 N8        30.19F
$$

AZZ027-028-052300-
SOUTHWEST MARICOPA COUNTY AND PINAL COUNTY

CITY           SKY/WX    TMP DP  RH WIND       PRES   REMARKS
CASA GRANDE    SUNNY     70  25  18 NE10      30.19F
GILA BEND      SUNNY     73  19  13 NE13G18   30.18F
$$

AZZ503-504-507>509-052300-
SOUTHEAST ARIZONA

CITY           SKY/WX    TMP DP  RH WIND       PRES   REMARKS
TUCSON         SUNNY     69  18  14 NE12G22   30.18F
DAVIS-MONTHAN  SUNNY     68  20  16 NE14G25   30.16F
RYAN FIELD       N/A     70  23  17 E12       30.18F
NOGALES        SUNNY     67  21  17 N12G24    30.16F
SIERRA VISTA   SUNNY     61  21  21 E13       30.23F
DOUGLAS        SUNNY     58  28  32 SE17G24   30.24F
SAFFORD        SUNNY     62  17  17 S9        30.24F
$$

AZZ020-021-025-026-031-052300-
SOUTHWEST ARIZONA

CITY           SKY/WX    TMP DP  RH WIND       PRES   REMARKS
YUMA           SUNNY     76  30  18 N8G16     30.19F
$$

CAZ031-033-041-043-047-048-061-052300-
SOUTHERN CALIFORNIA

CITY           SKY/WX    TMP DP  RH WIND       PRES   REMARKS
DOWNTOWN L.A.  SUNNY     75  22  13 MISG      30.19F
L.A. AIRPORT   MOSUNNY   72  21  14 SW8       30.20F
SAN DIEGO      SUNNY     72  34  24 NW13      30.19F
BURBANK        SUNNY     74  21  13 CALM      30.18F
ONTARIO        MOSUNNY   73  22  14 CALM      30.20F
RIVERSIDE      SUNNY     75  15  10 VRB3      30.19F
PALM SPRINGS   SUNNY     75  14  10 S6        30.23F
EL CENTRO NAS  SUNNY     74  28  18 VRB3      30.21F
IMPERIAL       SUNNY     73  32  22 N6        30.20F
BLYTHE         SUNNY     72  28  19 N9        30.23F
NEEDLES        SUNNY     71  22  15 N13       30.25
$$

NVZ020-UTZ003-052300-
SOUTHERN NEVADA-UTAH

CITY           SKY/WX    TMP DP  RH WIND       PRES   REMARKS
LAS VEGAS      SUNNY     63  19  18 VRB3      30.28F
SALT LAKE CITY MOSUNNY   48  19  31 NW7       30.41S
$$

NMZ009-TXZ055-052300-
NEW MEXICO-WEST TEXAS

CITY           SKY/WX    TMP DP  RH WIND       PRES   REMARKS
ALBUQUERQUE    SUNNY     49  12  22 S8        30.32F
EL PASO        SUNNY     48  20  32 VRB5      30.35F
$$


........................KEY........................
SKY/WX - SKY CONDITION/WEATHER
TMP    - TEMPERATURE IN FAHRENHEIT
DP     - DEW POINT IN FAHRENHEIT
RH     - RELATIVE HUMIDITY IN PERCENT
WIND   - DIRECTION AND SPEED IN MILES PER HOUR (MPH)
VRB    - VARIABLE WIND DIRECTION
PRES   - MEAN SEA LEVEL PRESSURE IN INCHES OF MERCURY
         F - FALLING PRESSURE   R - RISING PRESSURE
         S - STEADY PRESSURE
VSB    - VISIBILITY IN MILES
HX     - HEAT INDEX IN FAHRENHEIT
WCI    - WIND CHILL INDEX IN FAHRENHEIT
TC     - TEMPERATURE IN CELSIUS WHICH IS ALSO KNOWN AS
         TEMPERATURE IN CENTIGRADE
AFB    - AIR FORCE BASE
         LUKE AFB IS LUKE AIR FORCE BASE
         DAVIS-MONTHAN IS DAVIS-MONTHAN AIR FORCE BASE
NAS    - NAVAL AIR STATION
         EL CENTRO NAS IS EL CENTRO NAVAL AIR STATION
N/A    - NOT AVAILABLE



USA.gov is the U.S. government's official web portal to all federal, state and local government web resources and services.